Theta_e
309 310 310 310 310 309 310 310 310 310 312 314 318 320 319 318 320 323 324 327 329 329 328 327 326 326 326 326 326 326 326 326 325 325 324 324 324 324 325 325 324 324 326 328 330 332 335 338 342 344 345 346 346 345 345 346 345 345 345 346 346 347 346 346 346 346 346 346 346 346 346 346 346 346 346 346 346 346 345 345 344 343 340 336 332 329 327
310 310 310 310 309 309 310 311 311 312 313 315 319 324 324 323 323 325 326 328 328 327 327 326 326 326 326 326 326 325 325 325 325 324 324 324 323 324 324 324 324 324 323 325 326 328 330 333 336 340 343 345 347 347 346 345 345 346 346 345 346 346 346 347 346 346 346 346 346 346 346 346 346 346 346 346 346 346 346 346 346 346 345 344 340 335 330
310 310 310 310 309 309 310 312 313 314 314 316 318 322 325 326 326 325 325 328 327 326 326 327 326 326 326 326 326 325 325 325 325 324 324 323 323 322 322 322 323 324 323 323 324 325 327 329 331 334 337 342 345 347 347 347 345 346 346 346 346 345 346 347 347 346 346 346 346 346 346 346 347 346 347 347 347 347 347 347 347 347 347 347 347 344 339
310 310 310 310 309 309 310 311 313 314 316 319 320 321 324 326 327 325 325 327 326 325 326 327 326 326 326 326 325 325 324 324 324 324 324 323 323 322 321 320 321 323 324 324 324 324 325 327 328 329 332 336 342 346 348 348 347 346 346 345 346 345 346 346 346 346 347 346 346 346 346 347 347 347 347 347 347 347 347 347 347 348 348 349 349 349 347
310 309 310 310 309 309 310 311 312 314 317 320 322 323 324 325 325 324 325 327 325 324 325 325 325 326 326 325 324 324 324 324 324 324 323 323 323 322 321 319 319 321 322 324 325 325 325 325 327 327 329 331 335 341 346 349 349 348 347 346 346 346 345 345 346 347 346 347 347 347 347 347 347 347 347 347 347 347 348 348 347 348 349 349 350 351 351
310 310 311 310 308 309 310 311 311 313 315 318 321 323 322 323 324 323 324 325 324 324 324 324 324 326 326 325 324 324 323 323 323 324 323 323 323 322 321 319 319 319 320 321 323 325 325 324 325 326 327 328 330 336 342 347 349 350 349 348 348 347 347 346 346 346 347 347 347 347 347 347 347 347 347 348 348 347 348 348 348 348 349 350 351 351 352
311 311 311 310 309 309 310 311 313 314 314 317 320 321 320 320 322 322 322 322 322 323 323 323 324 325 325 325 325 324 322 322 322 323 323 323 323 322 321 320 319 319 319 319 321 323 324 324 324 324 326 328 329 331 336 342 347 350 351 351 350 349 349 348 347 347 347 348 348 348 348 348 348 348 348 348 348 348 348 348 349 349 350 350 351 352 353
311 311 310 310 310 310 310 312 314 315 316 319 320 320 318 317 318 320 320 320 321 322 322 322 322 323 325 325 325 323 321 320 319 320 322 323 323 322 321 320 319 319 319 319 319 322 324 324 324 324 325 327 328 329 331 335 340 346 349 351 352 351 351 350 350 350 348 348 348 348 348 348 348 348 349 349 349 349 349 349 349 350 351 351 352 353 354
311 311 310 311 310 310 312 314 315 315 316 318 318 318 318 316 316 319 319 319 320 320 320 319 319 322 325 326 325 323 319 317 317 317 319 320 322 322 322 321 320 319 319 319 319 320 322 323 323 323 325 325 325 327 329 331 333 338 343 348 351 352 352 352 351 352 352 350 349 349 349 349 349 349 350 350 350 350 350 350 350 351 352 353 354 355 355
312 311 311 312 311 311 313 315 315 314 314 316 315 315 317 315 315 317 317 318 318 318 317 316 316 320 323 324 324 322 317 315 315 315 316 318 319 320 321 321 321 319 319 319 319 319 320 322 322 323 325 326 325 326 328 330 330 332 336 341 346 349 352 353 352 352 353 353 352 351 350 350 350 350 351 351 351 352 352 352 352 353 354 354 355 356 356
312 312 312 312 311 312 314 315 315 313 313 315 314 312 314 315 313 313 314 315 316 315 315 314 315 318 319 320 321 319 314 312 313 313 313 315 317 318 319 320 321 320 319 319 319 318 319 321 323 324 325 325 325 326 328 331 332 331 331 334 338 343 348 352 353 353 353 354 355 354 352 351 351 352 352 352 353 353 353 354 354 355 355 356 356 357 357
313 312 312 312 312 313 314 314 314 313 313 314 313 312 315 315 312 312 313 313 313 314 313 314 314 315 316 316 316 314 311 311 312 311 312 312 313 316 318 319 319 319 318 319 319 318 319 320 321 324 325 324 324 324 326 329 331 332 332 332 333 336 341 347 351 354 354 354 356 356 354 353 353 353 353 354 354 355 356 356 356 357 357 357 358 358 358
313 313 313 312 312 313 314 313 314 313 313 313 313 313 315 314 312 311 311 311 312 312 312 313 314 314 314 314 313 311 310 311 311 311 311 311 311 312 315 317 319 318 318 318 319 318 318 319 320 322 323 323 323 323 324 326 328 331 332 333 333 333 336 341 346 352 354 355 356 357 357 356 355 355 355 355 356 357 357 357 358 359 359 359 359 359 359
313 313 313 312 312 314 314 313 313 313 313 313 313 313 312 311 311 311 311 311 312 312 312 313 313 313 313 312 312 312 311 311 311 310 310 310 311 311 312 314 316 318 318 318 318 318 318 318 319 320 321 322 323 324 323 322 325 328 331 333 333 333 334 337 341 346 351 354 356 357 358 357 357 357 356 357 357 357 358 359 359 360 360 360 360 360 360
312 313 313 313 313 313 312 313 312 313 313 313 312 311 311 310 311 311 311 311 311 311 312 312 312 312 312 312 312 313 312 312 311 311 310 310 310 311 311 311 313 316 318 318 318 318 318 318 318 318 319 320 322 324 323 321 322 326 328 330 333 333 332 333 336 340 345 349 353 357 358 358 358 359 358 359 359 359 359 360 360 359 360 360 360 360 359
312 313 313 313 314 313 311 312 313 313 312 311 310 311 312 311 310 310 311 311 310 310 311 311 312 312 312 312 313 313 313 313 312 311 311 311 310 310 310 310 310 313 316 318 318 318 318 318 318 318 318 319 320 322 323 322 321 323 326 328 331 332 331 330 331 334 338 342 346 351 353 355 357 359 360 361 361 361 360 361 361 360 359 360 360 360 359
312 312 312 313 313 312 311 311 311 311 310 309 309 310 311 311 310 310 310 311 310 310 311 311 311 312 312 312 312 312 313 313 313 313 312 312 311 311 311 311 310 310 313 316 318 318 318 318 318 318 318 318 319 320 321 323 322 322 324 327 330 332 332 330 328 329 332 336 340 343 345 348 353 358 360 360 362 361 361 362 362 361 359 360 361 361 360
312 312 312 312 312 312 311 310 309 309 309 309 309 309 310 310 310 309 310 310 310 310 311 311 311 311 312 312 312 312 313 313 313 313 313 313 312 312 311 311 311 310 312 315 317 317 317 318 318 318 317 317 318 318 319 321 323 323 323 324 328 331 333 332 330 328 327 329 333 339 342 344 348 354 356 358 360 361 361 362 363 361 360 360 361 361 361
312 313 312 312 312 312 311 310 308 308 308 309 309 309 309 309 309 309 309 309 309 310 311 311 311 311 311 312 312 312 312 312 312 313 313 313 314 313 312 312 312 311 311 314 316 317 317 318 318 319 318 317 317 318 318 319 321 323 323 323 325 328 331 332 332 330 327 326 328 333 339 342 345 348 352 355 359 361 361 362 363 363 362 362 362 362 362
312 313 312 311 312 311 309 309 309 308 309 309 308 308 308 308 308 308 308 308 309 310 311 311 311 311 311 311 312 312 312 312 312 312 313 313 314 314 313 312 313 312 312 313 316 317 317 318 318 318 318 318 317 318 318 318 319 322 323 323 323 324 328 331 332 332 330 329 328 330 335 340 343 346 349 352 356 359 360 361 362 363 363 363 363 362 361
312 312 311 311 310 310 309 308 308 309 309 309 308 308 308 308 308 308 308 309 310 310 310 311 311 311 311 311 311 311 311 311 311 312 312 312 312 313 313 312 313 313 312 313 315 317 317 318 318 318 318 318 317 317 318 318 318 319 322 324 323 324 326 329 331 332 333 333 332 331 331 335 340 344 348 351 354 356 358 359 361 361 362 363 363 362 362
312 312 312 311 310 311 311 309 308 308 308 308 308 308 308 308 308 308 309 309 310 310 310 311 310 310 310 310 310 310 310 310 311 311 311 311 312 312 312 312 312 313 313 312 314 317 318 317 318 318 318 318 318 317 317 318 318 318 320 322 324 325 327 329 330 331 333 334 334 333 331 331 335 340 344 348 351 354 354 355 358 360 361 362 362 362 363
312 312 311 310 310 311 311 309 308 308 308 308 308 308 308 307 308 308 309 309 310 310 310 310 310 310 310 310 310 310 310 310 310 310 310 311 311 312 312 313 313 314 315 314 313 316 318 318 318 318 318 318 318 317 317 318 318 318 319 321 322 324 326 328 329 331 333 334 335 335 334 333 334 336 339 343 348 352 352 351 353 356 358 359 359 360 361
313 311 309 309 310 311 310 308 308 308 308 308 308 307 307 307 307 309 309 309 309 309 309 309 309 309 309 309 309 309 309 310 310 310 310 311 312 312 313 313 314 315 316 315 314 315 318 318 318 318 318 318 318 318 317 318 318 318 318 319 321 322 324 326 329 330 332 333 334 335 335 335 335 336 337 339 343 348 350 351 352 352 353 353 354 355 356
311 310 309 309 309 309 308 308 308 308 308 308 308 307 307 308 308 309 309 309 309 308 308 308 308 308 308 309 309 309 309 309 310 310 311 311 312 313 313 313 313 314 315 315 315 316 317 318 318 318 318 318 318 318 318 318 318 318 318 318 319 320 322 324 327 328 330 332 333 334 335 335 336 336 337 338 340 343 347 351 353 353 352 350 351 353 354
310 310 309 308 308 308 308 308 308 308 308 308 307 307 307 308 308 309 309 308 308 307 307 307 307 308 309 309 309 309 309 310 310 311 311 311 312 312 312 312 312 313 314 314 314 316 317 318 319 319 319 318 318 318 317 318 319 319 318 318 318 319 320 322 324 326 328 329 330 332 333 334 334 335 336 337 338 340 342 345 350 352 352 351 353 356 357
309 309 309 309 309 309 308 309 309 309 308 308 308 308 308 307 307 308 308 307 307 306 306 307 308 308 308 308 308 309 309 310 310 311 311 311 311 312 312 312 312 313 314 314 315 317 318 319 319 319 319 319 318 318 318 318 319 319 318 318 317 318 319 321 322 324 325 326 327 330 332 333 333 334 335 336 337 339 340 342 345 348 349 349 353 357 359
309 309 309 310 310 310 309 309 309 308 308 308 308 308 307 307 307 307 307 307 307 306 307 307 308 308 308 308 308 309 309 310 310 311 311 311 311 313 313 313 313 314 315 314 316 317 318 319 320 319 319 319 319 318 318 318 319 319 319 318 317 317 318 320 322 322 323 324 325 328 330 332 333 333 334 335 336 337 338 340 342 344 346 347 350 353 356
309 309 309 309 309 309 309 309 308 308 308 308 308 308 307 307 307 307 308 308 308 307 307 307 307 308 308 308 308 309 309 309 310 310 310 310 311 314 315 314 314 315 315 315 316 317 318 319 320 320 320 320 319 319 319 318 318 318 318 318 317 316 317 319 321 322 322 323 324 325 327 330 332 333 334 334 334 335 337 338 339 341 343 345 346 348 349
310 309 309 309 309 309 309 309 308 308 308 307 308 307 307 307 306 307 308 308 308 307 307 307 307 307 308 308 309 309 309 309 309 310 310 309 310 313 315 315 316 316 316 316 317 317 318 319 320 320 320 320 319 319 318 317 317 317 317 317 316 316 317 318 320 321 321 322 322 323 324 327 331 332 333 334 334 334 335 336 338 339 340 342 344 346 346
309 308 309 309 309 309 309 308 308 308 307 307 307 307 307 307 307 307 308 308 307 307 307 307 307 308 308 308 308 308 309 309 309 309 309 309 309 311 313 314 316 317 317 317 317 317 318 319 319 319 319 318 318 318 317 317 317 317 316 316 315 315 316 317 319 321 321 321 321 322 323 326 329 331 332 333 333 333 334 334 335 336 338 340 342 344 345
309 308 309 309 309 309 309 308 308 307 307 307 306 306 307 307 307 308 308 308 307 307 307 307 307 307 307 307 308 308 308 308 308 308 308 308 308 309 310 312 313 314 314 314 314 315 316 316 316 316 316 316 316 316 316 316 316 315 315 315 315 315 316 317 319 320 321 321 321 321 322 325 327 330 331 332 332 333 333 333 333 334 335 336 339 341 343
310 310 310 310 310 309 309 308 308 307 307 306 306 306 307 307 307 307 308 307 307 307 307 306 306 307 307 307 307 308 307 307 307 307 307 307 307 307 308 309 310 310 310 311 311 312 312 313 313 314 314 313 313 314 315 315 315 314 314 314 315 316 317 318 319 320 321 321 321 321 322 324 326 328 330 331 331 332 332 332 333 333 334 335 336 338 340
310 311 310 310 310 309 309 308 308 307 307 306 306 306 306 306 306 307 307 307 307 307 305 305 306 306 306 307 307 307 307 307 306 306 306 306 306 307 307 308 308 309 309 309 310 310 310 310 310 311 311 311 311 312 313 313 313 313 314 315 315 317 317 318 319 320 320 321 321 321 322 323 325 327 329 329 330 331 331 331 332 333 334 335 336 336 337
311 311 311 310 310 309 309 308 308 307 307 306 306 306 306 306 306 306 307 307 307 305 304 304 305 306 306 306 306 306 306 306 306 305 305 305 305 306 306 306 306 307 307 308 308 308 308 308 308 308 309 309 310 310 311 311 312 313 314 314 315 316 317 318 319 320 320 321 322 322 322 323 325 327 328 328 329 329 329 330 331 332 333 334 335 336 337
311 311 311 310 310 310 309 308 308 307 307 306 305 306 306 306 306 306 307 306 306 304 303 303 305 305 306 306 306 306 306 306 305 305 305 304 304 304 305 304 305 305 306 306 307 306 306 306 307 306 307 307 308 308 309 310 311 312 312 312 314 315 316 316 318 319 320 320 321 322 323 324 325 326 327 326 326 327 327 327 329 330 331 333 335 336 337
310 310 310 310 310 309 309 308 308 307 307 306 305 306 306 306 306 306 306 306 305 304 303 303 304 305 305 305 305 305 305 305 305 305 304 304 303 304 304 304 303 303 304 305 305 305 305 305 305 305 305 305 306 307 308 309 310 310 310 311 312 313 314 315 316 318 319 319 320 322 323 324 325 325 325 324 324 324 324 325 326 328 329 331 332 334 335
310 310 310 310 310 309 309 308 308 307 306 306 306 306 306 306 306 306 306 306 305 304 303 303 304 304 305 305 305 305 305 305 304 304 304 303 302 302 303 304 303 302 303 305 305 305 304 304 304 304 304 304 305 306 307 308 309 309 309 310 312 313 314 314 315 316 318 319 320 321 322 323 324 324 324 324 323 322 322 323 324 325 326 327 329 330 331
310 310 310 310 309 309 309 308 307 307 307 306 306 306 306 306 306 306 306 306 305 304 303 303 303 304 305 305 305 304 303 303 302 302 302 303 302 301 301 303 302 301 302 304 304 304 304 304 303 303 303 304 304 305 306 307 308 309 310 311 312 313 314 314 315 316 317 318 319 320 322 323 323 324 324 324 323 321 321 321 322 323 323 324 325 327 329
309 309 309 308 307 308 308 308 307 307 307 306 306 306 306 306 305 306 306 306 304 304 303 303 303 304 304 304 303 303 302 301 301 300 301 302 302 301 300 301 301 301 301 303 303 303 303 303 303 303 303 303 304 304 305 307 308 309 310 312 312 313 314 315 315 316 317 318 319 320 321 322 322 323 323 323 321 320 319 319 319 321 322 322 323 324 326
308 308 308 307 306 307 308 308 308 307 307 306 306 306 306 305 305 305 305 305 304 304 304 303 302 303 303 302 302 301 301 300 300 300 299 300 301 301 301 301 301 301 301 302 302 302 301 302 302 302 302 303 303 303 304 305 307 309 310 311 311 311 312 314 315 316 317 317 318 319 320 321 321 321 322 321 320 318 317 317 317 318 319 320 320 321 322
308 307 307 307 307 307 307 307 307 307 307 306 306 306 306 305 305 305 305 304 304 304 304 302 302 302 302 301 300 300 299 299 299 299 298 299 299 300 300 300 300 300 300 301 301 300 300 301 302 302 301 302 302 302 302 304 306 307 308 309 309 309 310 312 314 315 316 317 317 318 318 318 319 319 320 319 318 317 316 315 315 316 317 317 317 318 319
307 307 307 307 307 307 307 307 306 306 306 306 306 306 306 305 305 305 305 304 304 304 303 302 301 301 301 300 299 299 299 298 298 299 299 299 299 299 299 299 300 300 299 300 300 300 300 300 301 301 300 301 301 301 301 302 303 305 306 307 308 308 309 309 311 313 315 315 315 316 316 316 316 317 317 318 317 316 315 314 314 314 315 314 314 315 315
305 306 307 307 307 307 307 307 306 306 306 306 306 306 306 305 304 304 304 304 304 304 303 302 301 301 300 300 299 299 299 299 299 300 300 300 300 299 299 299 300 300 299 299 299 300 300 300 300 300 300 300 300 300 300 301 302 303 304 305 306 306 307 307 308 310 312 313 313 313 313 314 314 314 315 315 314 314 314 313 312 312 312 312 312 312 312
303 304 305 306 306 307 307 306 306 306 305 305 306 306 305 304 304 304 304 304 304 304 303 301 300 301 300 300 300 300 300 300 300 300 300 300 300 300 299 298 300 299 298 297 298 300 299 299 299 300 299 299 300 299 300 300 300 301 302 303 304 305 305 305 306 307 309 310 311 311 311 311 311 312 312 311 311 311 311 311 310 310 310 310 310 310 310
302 302 302 303 304 305 305 306 306 306 305 305 306 306 305 304 304 304 304 303 304 304 302 301 301 301 300 300 300 300 300 300 300 300 300 300 300 299 298 298 299 299 297 296 297 299 299 298 298 299 299 299 299 299 299 299 300 300 300 301 302 303 304 304 304 304 305 307 309 309 309 308 308 309 309 308 307 308 309 309 309 308 308 307 307 307 307
302 302 302 302 303 303 304 304 305 305 305 305 305 305 304 304 304 304 303 303 304 303 302 301 301 301 300 300 300 301 301 301 300 300 300 300 300 299 298 298 298 298 296 295 296 297 298 297 297 297 298 298 298 298 299 299 299 299 299 300 300 301 301 302 302 303 304 304 306 307 307 306 305 305 306 306 305 306 306 306 306 306 306 306 305 305 305
302 302 303 303 303 303 304 304 305 305 305 305 305 304 304 304 304 303 303 303 304 303 302 301 301 301 301 300 300 300 300 300 300 300 300 299 299 298 298 298 297 297 296 296 295 296 297 297 296 296 297 297 297 297 298 298 298 298 298 299 299 300 300 300 300 302 302 303 303 304 304 304 303 303 303 303 303 304 304 304 304 304 305 305 304 304 304
302 303 303 303 304 304 304 305 305 305 305 305 305 304 304 303 303 303 303 303 303 303 302 302 302 302 301 300 300 300 299 299 300 299 299 299 299 298 298 298 297 297 296 296 295 295 296 296 296 295 295 296 296 296 297 297 297 297 297 298 298 299 299 299 299 300 301 301 301 301 302 302 302 301 301 301 301 302 302 302 302 303 304 304 304 304 304
302 302 302 303 304 304 305 304 304 304 304 304 304 304 303 303 303 303 303 303 303 303 302 302 302 302 301 300 300 300 300 299 299 299 299 299 299 298 298 298 298 297 296 296 295 295 295 295 295 295 295 295 295 296 296 296 296 296 297 297 297 298 298 299 299 300 300 300 300 300 301 301 301 300 300 300 299 300 300 301 301 302 303 304 304 304 304
301 302 302 303 303 304 304 304 304 304 303 303 303 303 304 304 304 303 302 302 303 303 302 301 302 302 301 300 300 300 300 299 299 299 299 299 299 298 298 298 297 296 296 296 295 295 294 294 295 295 295 295 295 295 295 295 296 296 296 296 297 297 297 298 299 299 299 299 299 300 300 301 301 301 300 300 299 298 298 299 300 300 301 302 303 303 302
302 302 303 303 303 303 303 303 303 302 302 302 303 303 304 304 304 304 303 303 303 303 302 302 302 301 300 300 300 300 300 299 299 299 299 299 299 298 297 297 297 296 296 296 295 295 295 294 294 294 294 295 295 295 295 295 295 295 295 295 296 296 296 296 297 297 297 297 298 298 298 299 299 299 299 299 298 298 297 298 298 299 299 300 300 300 300
Wind_Speed
5 4 5 3 2 3 2 4 5 5 6 6 6 7 5 2 2 6 7 6 6 5 4 6 7 7 9 10 12 13 14 17 18 20 22 24 26 30 34 34 34 35 36 36 34 31 29 25 21 16 9 1 7 14 18 20 23 27 33 36 34 33 35 38 39 38 36 35 35 34 34 33 32 31 31 31 30 29 29 28 29 29 29 29 30 31 31
6 3 3 2 3 3 3 4 4 3 4 6 6 7 7 7 8 10 11 10 8 5 4 5 6 7 8 9 11 14 16 18 18 19 22 23 24 26 30 33 32 31 32 34 35 33 30 27 25 22 18 11 4 5 13 19 21 21 26 33 35 34 35 37 37 36 37 37 36 36 35 33 32 32 32 31 31 30 29 29 29 29 29 29 30 31 32
5 2 2 3 4 3 4 5 5 4 5 6 6 5 6 7 9 10 10 9 6 4 4 4 5 7 8 10 12 15 16 17 18 19 20 22 23 24 27 29 30 30 30 30 32 34 33 30 27 25 23 19 13 6 6 13 19 21 24 28 32 36 37 36 35 35 36 37 37 37 35 34 33 33 32 32 31 30 29 29 29 28 27 28 29 30 32
3 1 1 3 3 2 3 5 5 4 4 5 5 4 3 4 6 8 6 5 4 3 3 3 4 7 9 11 12 13 14 16 17 18 19 20 22 24 27 28 27 27 28 28 28 30 31 31 29 27 24 22 18 13 6 7 13 19 24 26 29 34 37 36 34 35 36 37 38 37 36 35 34 34 33 33 32 31 30 29 29 28 28 27 28 28 30
4 3 1 3 0 3 3 3 3 3 4 5 5 5 4 3 2 3 3 4 5 3 2 2 3 5 6 9 11 12 14 15 15 16 17 18 19 21 25 27 27 26 25 25 25 25 26 28 29 28 25 22 20 17 12 6 8 14 20 25 27 31 35 36 35 35 36 36 37 37 36 36 35 34 34 34 33 31 31 30 30 29 28 28 28 28 28
5 4 1 1 3 4 2 3 1 1 2 4 5 5 6 4 2 3 5 5 4 3 3 3 4 4 3 4 8 11 13 14 15 16 17 17 18 20 23 26 28 27 25 23 22 22 23 23 24 26 25 23 21 18 14 10 7 9 14 20 24 26 30 34 35 35 35 35 37 37 36 36 35 35 34 34 33 32 32 32 31 30 29 29 29 29 29
3 3 2 3 4 2 3 3 1 0 1 4 7 7 6 5 5 5 6 5 4 4 4 4 5 5 3 1 5 10 12 14 14 15 16 17 18 19 22 25 27 27 26 24 22 21 21 21 22 23 24 23 22 19 16 13 9 7 9 14 18 21 25 29 31 33 34 34 35 35 36 36 35 35 34 33 33 33 33 32 31 29 29 30 30 30 29
2 2 4 3 0 2 2 2 2 2 3 7 8 6 4 5 5 3 4 4 4 4 5 6 8 6 3 5 1 7 12 15 15 15 16 16 17 18 20 23 26 26 26 25 23 21 20 20 20 22 23 22 22 21 18 15 12 9 7 8 12 18 22 23 24 27 32 35 35 35 35 36 36 35 34 33 32 32 32 33 32 30 29 30 31 30 30
1 2 3 1 0 1 2 2 2 2 2 3 2 2 3 2 3 3 3 3 3 4 6 8 11 8 2 7 4 4 12 17 17 16 16 15 16 17 17 19 22 25 25 24 22 21 19 19 18 19 21 22 21 21 20 18 16 13 9 6 7 13 19 23 24 24 26 31 36 37 36 36 36 35 34 33 31 31 32 32 33 32 30 30 30 30 30
2 2 3 3 3 3 3 3 2 0 1 1 0 1 2 3 2 3 2 2 3 4 5 8 11 7 3 5 3 5 14 19 19 19 18 16 17 17 18 18 19 21 24 23 22 21 20 19 19 17 18 20 21 20 20 20 19 17 14 11 8 8 15 21 26 27 26 26 30 36 38 37 36 35 34 33 31 31 31 31 31 31 30 29 30 30 30
3 4 4 3 3 2 4 6 6 2 1 4 3 2 3 4 3 2 2 2 4 4 5 7 7 4 3 2 2 9 18 21 20 22 21 19 18 17 17 18 18 19 21 22 22 21 20 20 19 17 16 18 20 21 21 20 19 19 16 14 13 10 10 15 22 28 29 26 25 31 36 38 37 36 34 32 31 30 29 29 30 30 30 31 31 30 31
4 4 3 2 2 1 5 8 7 4 5 6 5 4 2 5 4 0 1 3 5 5 5 6 4 2 2 4 8 15 21 22 21 22 22 22 21 19 18 18 18 19 20 20 21 22 21 20 19 18 16 16 18 20 21 20 19 19 18 16 15 14 11 11 16 23 29 29 26 27 33 36 36 36 34 32 30 30 29 28 28 28 29 31 32 32 31
5 5 4 2 1 1 5 7 5 4 6 6 5 2 3 5 3 0 2 4 5 5 6 5 4 5 6 9 15 19 21 21 22 22 22 22 22 20 19 18 19 20 21 20 20 21 22 21 20 18 17 16 16 17 19 21 21 20 19 18 17 14 13 13 13 17 24 28 26 25 28 33 35 36 35 34 31 30 30 29 29 29 30 31 32 31 31
3 3 3 3 1 1 5 6 4 3 4 3 1 2 4 4 3 1 2 4 4 5 6 6 7 10 12 13 15 18 19 20 22 22 23 24 24 22 20 19 19 20 21 21 20 20 20 21 21 20 18 16 15 14 16 20 22 21 19 18 18 16 14 15 14 13 16 22 25 25 25 29 34 36 35 34 33 31 30 31 31 31 31 32 33 32 32
1 3 4 3 2 3 6 6 4 3 3 0 2 2 2 2 1 2 3 4 4 6 8 9 10 12 14 14 14 16 17 19 21 22 23 24 25 25 24 22 20 19 21 22 22 20 19 20 21 21 20 18 16 14 14 17 20 22 21 19 18 16 15 15 14 13 13 16 21 25 23 24 30 34 34 32 32 32 32 33 33 34 34 34 34 34 32
3 4 4 1 1 5 6 3 1 1 1 2 1 2 1 1 2 3 4 6 7 7 9 11 12 13 14 14 15 16 17 18 21 23 23 24 25 26 26 24 21 19 20 22 23 22 20 19 20 21 21 20 18 16 14 15 17 19 21 20 19 17 16 16 15 14 14 14 17 22 24 22 24 29 30 30 30 30 31 30 30 33 35 32 32 32 31
2 2 1 2 3 5 4 1 1 1 2 3 2 1 1 2 3 4 5 8 10 9 10 11 13 14 14 15 16 17 18 19 20 22 22 23 24 25 27 26 23 20 20 21 23 24 22 19 19 21 22 22 21 19 15 14 15 17 18 20 20 18 17 17 16 15 15 15 15 17 20 21 22 27 28 28 28 28 28 26 26 30 32 29 27 28 27
2 4 3 4 6 5 3 1 1 1 3 4 3 1 2 3 4 5 6 9 11 11 11 11 13 14 15 17 18 18 19 19 19 20 20 21 22 24 26 27 25 22 20 21 23 24 23 21 19 20 22 22 22 21 18 15 13 14 17 19 19 19 18 18 18 17 17 18 17 14 14 16 21 26 27 27 28 28 27 25 25 27 30 29 26 24 24
2 3 5 8 10 9 5 4 5 4 5 5 3 2 3 4 6 7 8 10 11 11 11 12 14 15 16 18 19 19 19 20 19 19 20 20 20 22 24 26 26 24 22 22 22 24 24 22 20 20 22 23 22 22 21 18 14 13 15 18 20 20 19 19 19 18 18 19 19 16 12 11 17 25 28 27 27 28 28 26 25 25 25 24 24 25 25
4 2 2 6 8 8 6 6 6 6 7 6 4 3 4 5 7 8 9 10 10 11 11 12 14 16 16 17 19 20 20 20 20 20 21 21 21 22 23 25 27 26 24 23 23 23 24 23 20 20 22 23 23 22 21 20 18 14 13 16 20 22 21 19 19 20 20 20 19 17 13 11 13 23 32 32 30 29 28 27 26 25 23 21 22 25 28
5 4 3 7 6 7 9 8 8 8 7 5 4 4 5 6 7 8 9 9 9 10 12 12 13 15 16 16 18 20 21 21 21 23 24 24 25 25 25 26 27 27 26 25 24 24 24 23 21 20 22 23 24 23 22 21 20 18 15 14 16 20 21 20 18 19 21 22 20 18 15 12 12 20 30 36 36 35 34 31 28 27 26 25 24 24 24
5 4 6 10 6 4 6 11 11 8 6 4 4 5 5 6 7 8 8 9 9 9 11 12 13 15 17 17 18 20 21 21 22 23 24 26 27 28 27 27 28 28 27 27 26 25 24 23 21 21 22 24 25 24 23 22 21 20 19 17 15 15 18 20 20 20 22 23 23 21 18 15 14 18 26 33 37 39 39 38 35 32 32 33 31 27 24
4 2 6 12 8 2 5 11 11 8 6 5 4 5 6 7 8 7 7 9 10 11 11 12 13 15 17 18 18 20 21 20 21 23 24 25 27 28 28 27 27 26 26 26 28 27 24 22 21 21 22 24 25 25 24 23 21 20 20 19 17 14 16 18 20 22 23 24 25 24 21 17 17 20 25 30 34 37 39 40 39 38 38 40 39 37 36
5 4 7 12 10 4 7 10 9 7 6 5 4 5 6 8 8 7 7 8 10 11 13 14 15 16 17 18 19 20 21 21 22 24 25 25 26 27 28 27 27 26 25 25 27 26 23 21 21 22 23 24 24 25 25 23 22 21 20 20 19 16 15 17 19 21 24 25 26 25 23 20 19 21 26 29 31 34 37 39 39 39 40 42 42 42 42
12 8 8 11 10 7 8 9 8 7 6 6 5 5 6 7 7 7 8 8 10 11 12 15 17 17 16 16 18 19 20 21 23 24 26 26 26 25 26 28 30 30 27 26 25 24 22 21 21 22 24 24 23 24 25 24 23 21 20 19 19 17 16 16 18 20 22 24 26 27 26 24 22 22 25 29 31 31 32 35 37 38 38 38 39 40 41
17 11 8 10 10 8 9 8 7 7 7 6 5 5 7 8 8 8 8 9 10 12 13 15 15 15 15 16 18 19 19 21 22 24 25 26 26 26 28 31 32 31 28 27 25 23 21 21 21 23 24 24 23 24 26 25 24 22 21 20 20 18 17 16 17 20 22 23 25 27 28 27 26 24 25 27 29 29 29 30 33 35 36 36 36 37 37
18 14 11 11 10 10 10 8 6 7 6 5 5 7 9 10 11 11 11 11 11 13 15 14 12 13 15 16 18 19 20 21 22 23 24 27 29 30 31 31 31 29 26 25 25 22 20 21 22 23 23 23 23 24 26 26 24 23 22 22 21 19 17 17 17 19 22 24 25 27 28 28 28 28 27 26 26 27 27 27 29 31 33 34 35 35 36
17 18 17 13 10 9 8 7 7 7 7 6 7 8 9 11 12 13 12 11 12 13 14 13 12 13 16 17 18 19 19 20 22 23 24 29 32 31 28 27 27 25 23 23 23 21 20 22 23 23 22 22 23 24 25 26 25 24 22 22 22 21 18 17 18 19 21 24 25 25 26 27 28 29 29 28 25 25 25 26 27 29 31 33 34 34 35
13 16 18 17 13 9 7 8 8 7 6 6 8 8 9 10 12 13 10 9 10 12 12 12 12 13 15 15 17 18 19 20 22 22 23 29 33 27 21 21 21 20 19 20 20 19 20 22 23 23 22 23 23 24 25 25 25 24 23 22 22 22 20 18 18 19 21 23 24 25 26 27 27 28 30 29 26 25 25 25 26 27 30 33 34 35 35
10 9 12 14 13 10 10 10 8 6 6 6 8 9 9 10 12 12 10 8 9 10 11 12 12 13 14 14 16 17 18 19 20 21 22 27 29 24 16 15 16 14 14 16 18 20 21 23 23 23 22 22 22 23 25 25 24 23 23 22 22 22 21 19 18 18 20 22 24 24 25 26 26 27 29 30 28 26 25 25 25 26 28 30 32 34 37
10 11 13 13 13 12 12 11 8 7 7 7 8 10 10 10 11 10 9 8 9 10 11 12 13 13 13 15 17 18 17 17 19 20 21 24 26 23 17 12 10 8 8 11 14 18 20 21 20 20 19 20 21 22 24 25 24 23 22 22 22 21 21 20 19 18 19 21 23 24 24 25 25 26 27 29 29 28 27 26 25 26 26 27 28 30 33
11 13 15 15 15 14 13 12 10 8 7 8 9 10 10 9 9 9 8 7 8 9 10 11 12 12 14 16 18 18 17 17 19 19 20 22 24 22 18 14 10 6 4 5 8 11 13 13 13 15 16 18 19 22 23 23 23 22 21 21 21 21 20 20 19 19 18 19 21 23 23 23 23 24 25 26 27 27 27 27 27 26 26 27 27 27 27
12 12 13 14 15 15 15 13 11 9 7 8 10 10 9 9 9 8 7 7 8 9 10 11 11 12 14 16 17 16 17 18 18 19 19 20 22 21 18 15 13 12 10 9 8 8 9 9 11 13 16 17 19 22 23 22 21 20 19 20 21 21 20 19 19 20 19 19 20 21 22 23 23 23 24 25 25 26 26 27 28 28 27 28 28 28 26
12 11 10 11 11 12 13 12 11 9 8 8 9 9 8 8 8 8 7 7 8 9 11 11 11 12 13 15 15 16 16 17 17 18 19 19 19 19 18 15 12 11 11 11 11 12 12 13 14 15 16 18 20 22 21 20 19 18 18 18 21 21 19 19 19 19 20 20 19 19 21 22 23 24 24 24 25 25 26 27 28 29 29 30 29 29 28
11 11 11 10 10 10 11 11 11 11 9 7 8 8 8 8 8 8 7 7 8 9 11 12 11 11 12 14 14 14 15 16 16 17 18 18 17 17 18 16 13 11 10 10 12 14 15 14 14 14 16 18 20 20 18 17 17 16 15 17 20 20 19 19 19 19 19 19 19 19 20 21 22 24 24 24 25 26 26 27 27 28 29 30 30 30 30
10 11 11 12 12 12 12 12 12 12 9 7 8 8 8 8 8 8 7 7 8 10 11 12 11 10 11 13 13 13 14 15 15 14 15 17 17 16 16 16 15 13 11 10 12 16 17 16 15 15 16 17 17 17 16 15 14 13 14 16 19 19 19 19 19 18 18 18 18 18 19 20 21 22 22 23 24 25 25 27 27 27 28 28 29 30 30
12 12 12 12 13 13 13 13 13 12 10 8 8 8 8 8 7 7 7 7 7 9 11 11 11 10 11 12 13 12 12 13 13 13 14 16 15 14 13 14 15 14 12 12 13 16 17 17 16 17 17 15 14 16 16 14 12 12 14 16 18 17 17 18 18 18 18 18 17 17 18 19 19 20 20 21 23 24 25 26 26 26 27 27 27 27 28
14 14 14 13 14 14 13 13 13 13 11 9 8 8 8 7 7 7 7 7 7 8 9 11 11 10 10 10 10 10 11 12 13 13 14 15 14 13 11 12 14 14 12 12 14 16 17 17 17 18 18 15 15 17 18 15 12 13 14 15 15 15 15 17 17 17 17 16 16 17 17 18 19 20 20 21 22 24 25 25 25 25 25 25 25 25 25
15 16 17 16 15 13 12 13 14 14 12 10 9 8 8 8 7 7 6 6 7 8 8 9 9 9 9 9 9 10 12 13 13 13 13 12 13 12 10 10 12 12 12 12 14 16 17 17 17 17 16 15 16 18 18 15 13 14 14 13 12 13 14 15 16 16 15 15 15 15 16 17 18 19 20 21 22 24 25 25 24 24 23 23 23 23 22
11 14 15 13 11 11 12 13 15 15 13 11 9 8 8 8 7 7 6 6 6 7 7 8 9 9 9 9 9 10 12 13 13 13 12 11 11 12 12 11 11 12 13 14 14 15 16 17 17 16 15 15 15 17 18 17 15 14 14 12 12 13 13 13 14 14 14 13 14 14 14 16 17 18 19 20 22 23 24 24 23 22 21 21 20 20 20
9 11 13 13 11 12 13 15 16 16 15 12 10 9 8 8 8 7 7 6 6 6 6 7 8 8 8 8 9 10 11 11 11 12 12 12 11 13 13 13 13 13 15 16 15 14 14 16 15 15 15 15 15 16 18 17 15 14 13 13 13 13 13 12 12 12 12 12 13 13 14 15 15 16 17 18 20 21 22 22 21 20 19 18 17 17 17
9 9 10 10 11 12 15 18 18 17 16 14 12 10 9 9 8 8 7 6 5 5 5 6 7 6 6 7 8 9 10 11 11 11 11 10 10 11 13 14 14 14 16 16 15 14 14 14 14 15 16 16 15 16 18 18 16 14 14 14 14 13 12 11 11 11 11 11 12 12 13 14 15 15 15 15 17 19 20 20 19 18 17 15 14 13 14
9 8 7 7 8 9 12 15 15 13 14 15 14 11 10 10 9 8 7 5 4 4 4 5 5 4 5 7 9 11 11 12 12 11 10 9 8 9 11 13 13 14 15 16 15 14 14 14 14 16 17 16 15 16 18 18 17 15 14 14 13 12 11 10 10 10 10 10 11 11 11 12 13 14 13 13 14 16 18 18 17 16 15 13 12 11 11
9 9 8 8 9 9 9 10 10 10 12 16 15 13 12 11 9 8 7 5 4 3 2 2 3 3 5 7 9 10 10 11 11 11 11 11 11 10 11 12 12 13 15 15 13 13 14 14 15 16 17 16 16 17 17 16 15 15 13 12 11 11 10 8 8 8 8 8 9 9 9 10 11 12 12 11 11 13 15 15 15 13 13 12 11 10 9
10 10 10 11 12 11 11 10 9 9 10 13 15 15 13 12 10 8 7 6 4 3 1 1 2 3 5 7 8 8 8 8 9 11 12 13 13 13 13 12 12 13 15 14 11 12 14 15 14 15 16 16 17 17 15 13 12 12 10 9 9 9 9 7 6 5 6 6 6 7 7 8 9 10 10 9 9 10 11 11 10 9 9 8 8 7 6
11 11 11 13 14 14 14 12 10 9 10 14 17 16 13 12 10 9 7 5 4 3 2 1 1 3 4 6 7 7 7 8 9 10 11 12 12 13 13 13 12 14 15 13 11 12 14 15 14 14 14 14 15 14 12 10 9 9 8 7 6 5 6 5 4 3 3 3 4 4 5 6 6 7 6 5 5 6 6 6 5 5 4 3 3 3 4
12 11 11 13 14 15 16 14 11 11 13 17 19 17 14 12 10 8 7 5 4 3 3 2 2 3 4 6 7 8 8 9 9 9 10 10 10 11 12 12 13 14 14 12 11 12 14 15 14 14 13 12 11 10 9 9 8 8 6 5 4 3 2 3 2 2 1 1 2 2 3 4 4 4 3 2 2 2 2 3 4 3 3 4 6 8 10
11 11 11 11 11 12 13 13 13 14 15 18 19 17 14 11 9 7 5 5 4 4 3 3 2 2 3 5 6 8 9 9 9 9 10 10 10 10 11 11 12 13 13 11 11 12 14 14 14 13 12 11 11 10 10 10 9 8 6 5 4 4 3 3 2 1 0 1 2 2 2 2 3 3 3 3 3 4 5 7 8 8 8 9 11 13 15
11 10 10 9 7 8 9 11 14 16 17 18 19 17 14 11 8 6 4 4 4 4 4 4 3 1 2 4 6 7 8 9 9 10 11 11 10 9 9 10 12 12 12 12 13 14 14 14 14 14 13 13 12 11 11 11 12 10 8 7 5 3 3 3 3 2 1 2 3 4 4 4 5 5 6 5 5 5 7 9 11 12 12 13 14 16 18
10 10 9 7 6 7 9 11 13 14 16 17 18 16 14 11 7 4 4 3 3 3 5 6 5 2 2 3 4 6 7 8 9 10 11 11 10 9 9 9 10 11 11 11 13 15 15 14 14 14 14 15 15 13 12 12 12 12 11 10 9 8 6 5 5 4 4 5 6 7 7 8 9 9 10 9 9 8 9 12 14 15 15 15 16 17 18
9 9 8 5 4 7 10 12 13 15 17 19 18 15 12 9 6 4 2 2 2 2 5 6 6 4 3 3 3 4 5 7 9 11 12 11 10 10 10 10 11 11 11 11 12 14 16 16 15 13 13 15 16 16 15 14 14 13 12 12 11 11 11 10 10 10 11 10 10 11 11 11 12 12 12 12 12 12 14 16 17 18 18 18 17 18 19
7 6 5 2 6 9 10 11 13 16 19 18 15 11 9 7 6 3 2 1 2 3 3 4 5 5 4 3 2 3 5 8 10 11 12 12 11 10 10 11 12 13 12 12 14 15 17 17 16 15 14 13 14 15 16 16 16 15 15 14 14 14 14 15 15 15 15 15 15 16 16 16 16 15 15 14 15 16 18 20 21 21 21 21 20 20 21
Wind_Direction
88 79 90 100 65 68 46 16 21 14 19 39 54 58 48 10 92 113 137 138 107 88 63 50 42 34 30 22 16 17 21 23 23 22 23 23 24 29 35 40 41 39 36 33 33 33 34 34 34 32 30 4 217 214 212 214 220 230 238 242 243 244 245 246 247 248 248 247 247 247 246 247 246 245 244 244 243 243 242 241 240 239 238 239 240 241 241
96 58 54 55 33 60 80 52 42 43 55 64 68 66 66 77 95 112 125 118 92 68 52 41 32 30 33 30 24 22 23 23 22 24 25 23 22 24 29 35 38 39 38 33 30 29 29 28 28 27 24 20 351 236 219 217 214 217 231 242 244 242 244 248 250 251 250 249 248 248 248 248 248 247 246 246 246 246 244 243 243 242 241 240 240 241 242
101 47 14 21 23 63 95 74 64 86 98 85 74 77 79 87 106 123 126 116 94 57 51 49 26 24 31 35 33 27 23 21 22 24 24 22 20 21 25 30 33 36 38 35 30 28 26 25 23 21 20 18 11 344 247 225 219 214 221 236 243 243 244 248 250 251 251 250 250 250 250 250 250 249 248 248 248 248 247 246 245 244 243 242 241 241 242
124 108 339 3 25 99 120 94 75 77 99 96 78 74 75 87 120 141 144 125 98 70 62 53 25 19 26 32 31 27 22 20 20 22 21 20 18 18 21 24 26 30 34 34 32 29 26 24 22 17 15 13 10 2 332 250 230 223 220 226 235 241 244 247 249 249 250 251 252 252 252 252 252 251 250 250 249 249 248 247 247 245 244 243 243 242 243
140 155 294 345 52 188 164 114 89 77 94 108 107 91 72 63 115 156 142 114 109 102 78 47 27 12 18 28 28 25 22 18 16 16 16 16 15 14 17 20 21 22 26 28 30 30 29 26 23 18 14 10 7 4 356 326 262 239 229 226 229 236 241 244 247 249 250 251 253 254 254 254 254 253 252 251 251 251 250 249 249 248 247 246 246 245 244
150 159 263 295 212 203 140 85 82 83 94 123 131 109 84 70 73 101 99 100 109 99 60 42 20 353 346 26 31 27 24 19 13 10 9 9 10 10 13 17 17 16 17 20 24 27 28 26 23 19 15 11 6 0 358 352 315 265 246 237 233 235 239 241 244 247 250 252 254 255 256 256 255 254 254 254 253 252 252 252 251 250 249 249 249 247 246
146 145 189 213 210 176 82 66 70 57 83 119 121 103 79 62 70 102 107 92 79 58 40 23 355 333 276 224 35 31 27 20 13 6 2 1 1 3 7 11 11 11 10 11 14 18 20 20 20 19 16 13 9 1 355 354 343 303 270 252 242 238 238 240 244 248 250 253 255 256 256 256 256 255 254 255 254 253 253 253 253 252 252 252 252 250 249
135 171 204 213 234 50 58 77 134 145 133 138 137 118 82 44 40 80 103 83 68 45 27 6 346 336 235 198 119 28 20 14 10 5 358 354 352 353 357 1 4 5 5 4 5 8 11 12 15 17 15 12 9 5 359 353 349 336 309 270 247 238 234 235 240 247 252 254 255 257 257 255 255 255 255 255 255 254 254 254 254 254 252 252 252 251 250
196 201 200 190 42 202 185 140 141 160 139 148 171 146 113 69 29 51 83 74 53 33 24 6 351 344 224 193 183 26 7 0 360 360 357 352 347 344 346 351 355 358 0 0 0 359 360 3 7 11 13 11 7 6 3 357 351 343 333 311 261 237 231 230 231 236 245 251 253 254 254 254 254 254 255 255 255 255 254 254 254 254 253 253 252 252 251
190 205 203 194 199 196 176 158 155 66 48 112 245 277 164 146 71 57 76 60 31 21 14 3 354 341 255 209 184 4 350 347 347 347 348 350 348 343 341 343 346 350 353 356 358 355 351 354 1 5 10 11 6 3 4 3 358 349 336 324 306 258 232 230 232 232 234 242 249 251 251 252 254 254 254 255 254 255 255 255 255 257 257 256 255 253 251
184 206 218 207 203 166 139 156 161 158 187 171 181 254 208 159 132 63 44 16 2 2 356 353 351 335 280 251 321 336 332 332 335 336 335 337 339 339 340 339 338 341 345 348 353 353 348 349 355 0 7 11 8 3 3 5 2 356 345 330 321 307 263 236 232 234 235 237 243 249 251 251 252 252 253 254 253 254 255 256 257 258 258 257 256 254 254
191 208 225 223 240 142 142 158 161 162 181 184 206 259 203 154 160 141 11 340 336 340 336 334 332 318 304 301 309 317 319 320 321 323 323 324 325 327 330 331 331 333 337 340 345 348 347 344 346 352 360 6 5 1 1 2 2 1 356 342 326 317 302 270 239 232 235 238 240 246 250 252 252 252 251 251 251 253 253 254 255 255 256 257 257 257 257
206 212 226 237 267 140 155 169 167 158 172 194 231 268 118 143 172 238 321 309 318 320 317 316 302 295 299 299 302 310 315 315 312 310 311 311 312 314 316 316 320 325 328 331 335 340 343 341 339 342 347 352 357 359 357 357 359 360 359 351 336 319 308 298 269 237 230 233 236 241 247 250 251 250 249 248 247 248 249 250 250 250 251 253 255 256 257
215 217 233 251 277 121 145 157 158 175 195 210 238 81 106 142 181 228 281 291 306 305 300 295 287 293 301 301 303 310 314 314 310 307 306 304 302 303 304 304 309 315 318 321 325 331 338 338 335 335 335 338 346 351 349 349 351 352 353 353 347 333 315 306 295 268 239 229 228 232 240 247 249 248 247 246 244 244 245 246 247 247 247 249 252 254 255
204 211 217 240 272 121 137 149 158 191 221 3 67 100 130 161 210 286 283 287 303 302 298 297 293 297 303 305 307 310 310 311 312 310 307 304 301 301 302 303 304 304 307 311 315 320 329 333 332 330 330 331 335 339 339 339 341 344 345 345 347 342 327 314 308 297 275 250 234 228 230 239 244 244 244 243 241 242 243 244 245 246 246 247 250 252 253
214 212 205 228 74 116 135 158 137 126 303 344 74 142 176 220 292 304 295 295 306 308 302 302 302 303 304 307 311 312 308 308 311 313 311 307 303 301 300 299 298 295 295 300 304 308 316 324 326 326 326 326 327 329 332 330 327 332 338 339 338 339 331 317 312 307 296 281 260 243 240 240 235 234 239 242 239 238 240 240 241 244 245 246 247 248 248
226 262 288 98 126 133 134 117 63 88 272 261 193 174 252 272 282 296 297 300 308 312 306 302 303 304 304 307 310 309 308 307 307 309 311 310 307 304 300 298 297 293 288 289 293 298 304 312 318 321 322 322 322 322 324 323 318 320 329 332 331 332 330 319 310 307 302 298 291 274 266 260 240 227 234 241 239 238 239 239 240 243 244 244 243 244 244
250 266 227 177 186 191 187 224 261 257 230 201 181 213 260 268 285 292 294 301 307 310 306 301 300 301 304 307 308 308 308 307 305 305 306 307 309 308 302 299 298 293 283 279 282 288 294 301 309 315 317 318 318 316 317 318 315 313 316 321 324 327 327 321 313 307 302 300 302 300 289 273 249 235 239 246 245 242 242 242 241 243 244 243 242 241 240
207 220 194 195 204 200 195 234 256 244 209 193 205 265 267 274 291 292 293 303 306 304 301 300 299 301 304 305 307 308 308 307 307 306 304 304 306 307 305 302 301 294 281 273 274 279 285 292 301 306 311 315 314 312 313 313 313 309 305 307 314 320 322 322 318 314 308 301 299 301 305 288 257 246 250 256 254 249 246 244 243 243 242 240 240 240 240
209 227 186 198 205 205 224 253 238 206 199 201 221 263 278 284 294 297 298 301 302 299 300 300 300 303 306 305 306 309 309 308 307 305 304 303 302 303 304 305 303 296 282 270 267 271 277 285 294 300 305 310 311 311 311 309 308 309 301 296 302 309 315 319 318 315 313 307 297 292 296 295 266 249 249 253 254 250 246 245 246 246 245 243 241 242 245
225 259 216 196 212 238 241 228 197 184 192 203 220 258 286 293 298 304 304 302 298 295 299 303 304 305 306 307 308 308 308 307 306 305 304 303 302 302 303 305 303 296 283 269 263 265 270 277 287 294 298 303 308 310 312 310 306 304 301 295 294 298 306 315 318 313 310 307 299 288 285 286 274 254 248 248 249 247 243 241 242 242 243 244 246 247 249
231 242 198 188 204 253 208 188 183 185 192 206 237 266 285 292 298 305 306 306 305 301 301 304 306 306 307 308 309 308 307 306 306 306 304 303 302 302 303 303 301 294 283 271 263 262 264 270 280 288 293 298 304 308 310 311 308 303 300 297 294 291 296 307 315 313 309 306 300 291 283 280 278 266 254 249 248 248 245 242 240 240 240 241 242 244 246
238 213 186 189 200 221 165 176 184 187 191 216 254 271 285 295 301 305 305 307 310 310 309 308 306 306 308 310 309 307 306 306 306 306 305 302 301 302 303 302 299 293 285 274 264 261 262 267 274 283 287 291 299 306 309 309 308 304 300 297 296 292 288 293 304 311 312 310 306 299 291 284 282 278 268 257 249 245 246 246 244 244 245 247 247 247 247
231 216 199 194 198 190 166 174 180 182 196 230 258 278 294 299 301 303 305 308 310 311 311 311 312 312 310 310 310 308 307 308 308 308 306 304 302 301 301 298 296 293 287 277 267 262 262 266 270 277 283 286 294 302 307 309 308 304 299 296 296 296 288 282 289 301 308 311 311 309 303 296 289 283 278 272 260 247 242 245 247 248 248 250 251 252 252
234 241 219 197 194 185 173 181 191 197 211 237 258 282 297 297 297 300 300 304 311 313 312 313 316 318 315 312 313 311 308 310 311 310 308 306 302 298 296 297 299 296 287 277 267 262 262 266 269 272 277 283 292 299 304 307 308 305 299 294 292 296 294 284 279 285 295 305 310 311 309 305 298 287 279 278 274 261 247 241 243 247 250 251 252 254 255
235 238 212 188 188 189 188 198 210 210 217 239 264 293 307 305 301 299 297 302 314 319 318 317 316 317 316 314 314 313 311 312 314 314 312 310 305 299 297 299 301 299 289 275 264 259 262 267 267 268 274 282 290 297 300 303 305 304 301 295 290 292 296 291 279 276 281 291 300 305 307 306 302 294 282 277 277 274 263 250 244 244 247 251 253 254 254
231 221 200 185 187 200 208 212 211 213 227 251 273 296 309 310 307 305 303 309 318 321 323 322 317 315 317 317 317 317 315 315 318 318 317 315 309 301 297 295 293 292 285 269 258 257 262 263 261 265 273 281 287 293 297 300 301 302 302 298 292 289 291 291 284 276 275 280 288 296 301 301 299 296 290 285 282 279 274 267 259 252 247 247 249 251 252
228 218 215 212 209 211 215 212 211 223 242 260 271 288 302 306 307 308 306 311 318 321 324 326 322 320 322 322 322 321 318 319 321 320 320 322 317 303 291 286 284 281 274 261 253 254 258 258 260 266 273 278 284 289 294 297 300 301 302 301 295 289 286 286 284 279 275 277 283 289 294 295 295 296 295 293 291 286 279 273 268 262 256 250 247 248 249
225 220 223 225 226 225 223 222 225 235 249 258 267 284 297 301 303 306 306 310 316 319 323 326 325 326 327 326 326 325 323 324 326 324 325 330 328 316 297 285 280 273 263 255 253 256 257 258 262 267 269 274 281 287 291 295 298 300 301 301 298 291 286 285 286 283 277 276 280 287 293 296 296 295 294 295 296 295 288 280 274 268 263 258 253 249 246
225 217 218 221 224 229 232 230 231 239 251 261 271 284 293 297 301 303 303 308 315 319 324 326 327 329 330 328 328 329 329 329 330 329 332 337 339 336 321 297 284 274 262 255 256 258 259 259 261 264 267 273 280 285 289 293 296 299 300 301 298 292 286 284 285 286 282 278 278 285 293 297 297 295 293 295 298 298 295 289 282 274 268 265 262 257 250
211 203 207 213 217 224 227 228 232 242 252 264 275 282 287 290 293 295 298 306 314 319 324 326 327 329 330 330 331 333 335 336 335 335 338 341 344 350 350 328 298 268 240 235 240 245 250 254 259 264 271 278 281 284 289 293 295 297 298 298 296 292 288 285 284 286 287 284 281 284 290 296 298 297 295 295 296 297 296 294 289 281 274 270 267 263 259
200 201 212 218 219 222 224 226 231 240 249 261 271 278 282 283 283 286 291 301 311 318 323 326 329 330 330 331 333 335 337 340 340 340 342 343 344 350 357 355 342 323 278 252 247 246 249 257 266 275 283 288 288 288 291 294 295 296 295 293 293 292 289 287 284 285 286 286 285 287 292 297 299 299 296 294 294 295 295 294 293 289 283 277 272 269 267
195 194 206 212 213 218 223 226 232 239 249 264 274 277 278 278 280 283 289 297 307 318 324 325 327 330 331 332 335 337 339 340 341 342 343 342 341 343 349 353 350 345 340 329 313 301 298 300 300 297 298 298 295 293 294 295 294 293 292 290 289 291 292 289 286 285 286 287 286 288 293 299 302 301 298 296 295 295 294 294 293 292 289 285 281 277 274
211 211 219 220 221 226 229 231 233 236 245 267 280 278 273 276 281 284 289 294 305 317 324 325 327 331 333 333 334 337 339 341 343 344 344 342 339 337 339 343 344 343 340 334 325 321 321 322 319 310 302 298 296 296 298 297 293 290 289 287 287 290 292 291 288 287 289 291 291 290 292 297 301 302 301 300 298 297 296 295 294 292 291 289 287 285 282
231 234 238 240 241 242 241 238 235 234 242 264 277 275 272 275 278 279 281 288 303 317 325 327 328 331 334 332 333 337 339 340 341 344 344 343 341 335 332 333 333 331 331 332 328 323 324 328 328 319 307 301 300 302 302 299 292 287 285 284 285 288 292 292 290 290 291 294 296 295 295 297 299 301 302 303 302 301 300 298 296 294 293 291 289 288 286
233 232 234 237 240 243 244 241 235 232 240 258 268 269 270 271 271 271 273 284 303 318 326 329 329 332 335 333 333 337 339 337 339 342 343 344 345 339 331 331 334 333 333 335 330 325 327 332 331 322 315 311 308 307 305 300 294 288 283 282 285 289 292 292 291 290 291 294 297 299 299 299 300 302 303 305 305 305 303 301 298 296 294 293 291 290 289
233 230 231 236 241 244 244 241 235 231 237 250 261 265 266 265 263 264 268 282 301 315 324 331 335 334 332 331 331 334 336 334 336 338 338 340 345 343 334 332 337 339 337 337 332 327 329 330 324 319 321 322 317 314 313 309 299 289 284 284 288 292 293 294 293 292 292 294 298 301 302 302 302 305 307 310 311 310 308 305 302 298 296 294 294 293 293
237 235 235 239 243 245 244 239 232 230 234 243 255 260 259 259 260 258 260 276 296 309 322 333 338 334 330 331 333 335 335 333 332 333 332 336 345 349 341 335 337 338 337 333 327 323 324 324 321 321 326 327 322 320 321 316 303 291 288 288 290 292 293 295 297 296 295 296 300 304 307 307 307 309 312 315 316 316 313 310 307 303 301 299 298 297 297
239 237 234 233 233 237 238 233 228 229 233 240 250 256 255 255 256 254 254 269 289 304 320 334 337 333 331 334 336 336 337 335 334 334 334 335 341 346 344 337 335 337 338 333 325 322 324 326 325 326 329 328 323 323 324 319 305 294 290 288 288 289 292 296 299 299 299 300 303 308 310 309 310 313 316 318 320 319 316 314 311 306 304 304 304 304 302
248 243 242 240 233 230 232 232 232 234 237 239 243 249 251 251 249 246 245 258 278 296 318 335 338 334 332 336 338 339 338 336 334 333 333 333 335 339 342 342 339 341 345 342 331 325 328 331 329 330 334 333 328 325 325 322 312 298 289 285 285 286 288 292 297 300 300 302 305 309 309 308 309 312 315 318 320 320 318 316 313 309 307 306 307 307 305
275 269 271 272 260 244 239 240 237 235 236 240 241 240 241 243 242 236 233 243 267 292 319 336 337 333 335 341 345 343 339 336 334 331 331 333 334 336 339 342 341 343 347 344 332 327 335 339 335 334 336 335 330 326 324 323 318 306 292 286 285 284 281 284 290 294 298 302 305 307 308 307 307 309 311 315 319 321 320 319 316 312 310 309 309 307 304
287 281 279 275 264 252 249 249 245 235 230 235 238 234 232 234 230 222 220 232 258 291 322 336 338 341 348 352 353 352 349 348 348 345 340 341 341 337 337 339 341 343 345 343 334 332 339 343 340 338 337 333 326 321 321 322 323 317 303 292 286 281 277 277 281 285 291 298 301 303 306 307 306 306 308 313 318 320 319 319 318 316 313 311 310 308 304
298 294 287 280 274 265 259 260 259 247 232 230 230 228 227 226 218 209 210 227 253 282 317 338 348 359 5 0 0 3 3 1 2 0 355 353 353 347 343 343 342 341 343 345 340 337 342 345 342 339 336 329 320 319 322 323 322 318 307 296 286 278 272 272 274 277 284 292 295 299 304 306 304 304 305 309 315 318 318 317 317 318 317 314 310 307 304
294 291 287 282 278 272 264 264 268 260 240 229 222 219 219 218 209 201 205 219 241 267 307 346 7 15 13 8 7 9 7 3 3 3 359 356 355 353 352 351 344 339 344 348 344 340 345 349 344 338 337 333 328 326 325 323 319 316 308 297 285 274 266 263 266 270 278 287 293 298 303 305 305 305 306 309 316 319 317 315 316 317 317 315 311 307 304
284 278 277 276 276 276 272 265 262 261 246 227 213 210 214 213 203 197 205 214 224 241 262 350 34 30 20 14 12 10 6 3 2 1 358 355 351 349 352 353 346 341 347 353 349 344 348 350 344 339 340 338 334 330 327 322 320 320 317 306 290 275 265 261 261 263 270 280 289 299 306 309 307 305 306 312 321 322 319 317 319 319 318 318 318 319 319
290 280 273 268 266 269 272 265 252 244 236 219 205 201 206 205 195 192 200 206 209 220 223 197 72 46 28 20 17 12 5 1 360 358 356 354 348 345 349 353 349 344 348 355 356 354 354 353 351 351 349 341 334 333 335 331 327 327 329 326 312 289 274 272 275 275 278 284 293 305 312 313 311 308 309 318 332 335 331 331 332 327 327 345 16 33 39
307 300 289 276 266 265 268 261 239 222 219 212 200 194 195 195 190 188 190 189 191 213 223 203 110 67 38 22 15 6 357 353 354 355 355 354 352 350 353 356 354 351 353 358 1 360 359 359 3 5 1 350 343 345 351 348 340 334 335 344 350 344 321 302 298 300 323 345 344 331 319 316 319 326 333 349 14 28 39 55 63 69 81 94 100 100 98
308 304 302 293 276 261 253 239 217 206 206 201 192 184 181 181 182 183 182 179 184 204 216 203 155 94 49 27 16 6 357 354 355 357 358 358 358 357 359 360 358 358 360 3 5 4 4 6 10 13 10 5 4 10 16 14 6 354 345 347 354 2 12 14 8 1 43 48 46 42 26 9 14 33 52 70 83 99 109 109 104 103 108 113 115 114 113
305 303 305 299 274 247 232 217 205 199 196 190 181 174 169 170 177 185 187 185 194 209 209 198 186 142 44 30 20 9 1 358 1 3 4 4 4 3 3 2 1 1 4 10 13 13 11 11 15 20 22 22 22 24 28 30 27 23 19 17 13 11 19 28 33 47 80 84 79 85 92 89 79 76 79 81 84 99 116 118 114 112 115 118 119 118 117
308 307 308 298 267 234 215 202 194 189 184 180 175 169 164 166 174 184 187 189 205 212 201 196 194 176 72 45 25 10 5 8 12 10 7 7 9 11 11 9 6 6 7 11 15 16 17 17 19 21 25 28 29 31 33 34 35 35 36 36 38 44 52 62 71 81 89 91 92 97 106 113 112 107 103 96 89 90 100 108 111 113 115 116 117 116 115
318 309 304 290 239 203 194 190 184 176 169 166 165 164 164 169 178 188 194 203 209 197 198 206 209 193 138 87 41 7 8 18 21 17 12 12 17 22 24 24 22 20 21 22 21 21 23 25 25 25 28 32 35 36 35 33 35 40 45 47 50 55 63 72 82 86 88 90 93 95 100 105 108 110 111 110 106 102 102 104 106 108 110 111 111 111 110
345 328 309 221 175 176 180 175 165 156 152 152 155 161 170 177 181 183 184 190 193 195 201 204 196 175 143 105 57 22 27 31 28 24 21 22 26 32 36 37 35 34 36 39 39 36 34 33 33 34 37 39 39 37 34 32 33 41 49 55 59 63 69 76 82 84 86 88 90 91 93 94 94 94 96 101 104 106 106 107 107 106 105 105 105 105 104